PSA759 KSAN-KLAX

Flight info

Callsign PSA759
Flight time 0h 45m
Altitude 12000
Route OCN SLI
Aircraft B722/M-SDWY/C

Departure

Time 2026-04-26 18:31
Airport San Diego International Airport (KSAN)

Arrival

Time 2026-04-26 19:16
Airport Los Angeles International Airport (KLAX)
Time Latitude Longitude Altitude Speed Heading
2026-04-26 17:57 32.73282 -117.19711 27 ft 0 kts 131°
2026-04-26 18:03 32.73282 -117.19712 8 ft 0 kts 131°
2026-04-26 18:20 32.73289 -117.19721 27 ft 4 kts 137°
2026-04-26 18:20 32.73296 -117.19727 27 ft 4 kts 151°
2026-04-26 18:21 32.73330 -117.19722 27 ft 4 kts 199°
2026-04-26 18:21 32.73355 -117.19711 27 ft 4 kts 199°
2026-04-26 18:21 32.73380 -117.19701 28 ft 4 kts 197°
2026-04-26 18:21 32.73405 -117.19698 29 ft 4 kts 169°
2026-04-26 18:22 32.73427 -117.19711 29 ft 4 kts 135°
2026-04-26 18:22 32.73441 -117.19737 30 ft 4 kts 110°
2026-04-26 18:22 32.73443 -117.19747 30 ft 0 kts 105°
2026-04-26 18:25 32.73438 -117.19723 30 ft 8 kts 105°
2026-04-26 18:26 32.73411 -117.19615 30 ft 18 kts 106°
2026-04-26 18:26 32.73373 -117.19462 30 ft 21 kts 106°
2026-04-26 18:26 32.73328 -117.19275 27 ft 26 kts 106°
2026-04-26 18:26 32.73279 -117.19076 29 ft 24 kts 106°
2026-04-26 18:27 32.73230 -117.18871 30 ft 27 kts 105°
2026-04-26 18:27 32.73176 -117.18650 35 ft 29 kts 106°
2026-04-26 18:27 32.73115 -117.18401 32 ft 33 kts 106°
2026-04-26 18:27 32.73054 -117.18147 31 ft 29 kts 105°
2026-04-26 18:28 32.72999 -117.17918 31 ft 28 kts 106°
2026-04-26 18:28 32.72955 -117.17754 27 ft 15 kts 108°
2026-04-26 18:28 32.72963 -117.17647 30 ft 12 kts 69°
2026-04-26 18:28 32.73022 -117.17606 31 ft 9 kts 311°
2026-04-26 18:29 32.73031 -117.17630 31 ft 0 kts 287°
2026-04-26 18:30 32.73047 -117.17694 29 ft 30 kts 287°
2026-04-26 18:30 32.73177 -117.18233 32 ft 103 kts 286°
2026-04-26 18:30 32.73426 -117.19287 105 ft 154 kts 288°
2026-04-26 18:31 32.73756 -117.20525 932 ft 155 kts 288°
2026-04-26 18:31 32.74234 -117.21673 1778 ft 162 kts 305°
2026-04-26 18:31 32.74945 -117.22764 2427 ft 175 kts 307°
2026-04-26 18:31 32.75739 -117.23965 2994 ft 198 kts 303°
2026-04-26 18:32 32.76557 -117.25338 3628 ft 208 kts 304°
2026-04-26 18:32 32.77453 -117.26834 4259 ft 238 kts 304°
2026-04-26 18:32 32.78607 -117.28364 4915 ft 254 kts 320°
2026-04-26 18:32 32.80126 -117.29502 5523 ft 260 kts 329°
2026-04-26 18:33 32.81727 -117.30520 6138 ft 262 kts 329°
2026-04-26 18:33 32.83340 -117.31545 6722 ft 263 kts 329°
2026-04-26 18:33 32.84955 -117.32573 7279 ft 263 kts 328°
2026-04-26 18:33 32.86572 -117.33601 7851 ft 264 kts 328°
2026-04-26 18:34 32.88109 -117.34775 8418 ft 262 kts 315°
2026-04-26 18:34 32.89302 -117.36392 9014 ft 260 kts 304°
2026-04-26 18:34 32.90357 -117.38141 9622 ft 261 kts 303°
2026-04-26 18:34 32.91421 -117.39914 10045 ft 267 kts 303°
2026-04-26 18:35 32.92493 -117.41704 10045 ft 264 kts 303°
2026-04-26 18:35 32.93559 -117.43483 10035 ft 263 kts 303°
2026-04-26 18:35 32.94610 -117.45239 10032 ft 263 kts 303°
2026-04-26 18:35 32.95673 -117.47015 10030 ft 263 kts 303°
2026-04-26 18:36 32.96737 -117.48795 10037 ft 264 kts 303°
2026-04-26 18:36 32.97804 -117.50580 10040 ft 264 kts 303°
2026-04-26 18:36 32.98868 -117.52356 10036 ft 264 kts 303°
2026-04-26 18:36 32.99937 -117.54136 10041 ft 264 kts 303°
2026-04-26 18:37 33.01005 -117.55917 10038 ft 264 kts 303°
2026-04-26 18:37 33.02074 -117.57699 10042 ft 264 kts 303°
2026-04-26 18:37 33.03147 -117.59465 10049 ft 263 kts 304°
2026-04-26 18:37 33.04224 -117.61231 10049 ft 263 kts 304°
2026-04-26 18:38 33.05303 -117.63002 10046 ft 263 kts 304°
2026-04-26 18:38 33.06368 -117.64750 10048 ft 264 kts 304°
2026-04-26 18:38 33.07445 -117.66518 10042 ft 264 kts 304°
2026-04-26 18:38 33.08523 -117.68290 10044 ft 264 kts 304°
2026-04-26 18:39 33.09602 -117.70062 10046 ft 264 kts 303°
2026-04-26 18:39 33.10681 -117.71837 10048 ft 264 kts 303°
2026-04-26 18:39 33.11757 -117.73607 10037 ft 264 kts 303°
2026-04-26 18:39 33.12835 -117.75381 10038 ft 264 kts 303°
2026-04-26 18:40 33.13911 -117.77154 10042 ft 263 kts 303°
2026-04-26 18:40 33.14986 -117.78924 10044 ft 263 kts 303°
2026-04-26 18:40 33.16208 -117.80555 10029 ft 266 kts 317°
2026-04-26 18:40 33.17729 -117.81832 10039 ft 269 kts 323°
2026-04-26 18:41 33.19334 -117.82987 10039 ft 270 kts 326°
2026-04-26 18:41 33.20983 -117.84084 9948 ft 273 kts 327°
2026-04-26 18:41 33.22654 -117.85120 9615 ft 273 kts 329°
2026-04-26 18:41 33.24369 -117.86099 9270 ft 274 kts 332°
2026-04-26 18:42 33.26136 -117.86963 8927 ft 274 kts 334°
2026-04-26 18:42 33.27914 -117.87788 8586 ft 274 kts 335°
2026-04-26 18:42 33.29706 -117.88576 8259 ft 273 kts 336°
2026-04-26 18:42 33.31505 -117.89303 8032 ft 270 kts 338°
2026-04-26 18:43 33.33289 -117.89975 8029 ft 268 kts 339°
2026-04-26 18:43 33.35090 -117.90626 8028 ft 270 kts 339°
2026-04-26 18:43 33.36891 -117.91261 8030 ft 270 kts 339°
2026-04-26 18:43 33.38702 -117.91889 8031 ft 270 kts 339°
2026-04-26 18:44 33.40485 -117.92502 8035 ft 270 kts 340°
2026-04-26 18:44 33.42320 -117.93132 8044 ft 272 kts 340°
2026-04-26 18:44 33.44113 -117.93745 8046 ft 270 kts 339°
2026-04-26 18:44 33.45928 -117.94366 8040 ft 271 kts 340°
2026-04-26 18:45 33.47741 -117.94986 8038 ft 270 kts 339°
2026-04-26 18:45 33.49551 -117.95605 8040 ft 271 kts 339°
2026-04-26 18:45 33.51365 -117.96225 8045 ft 271 kts 340°
2026-04-26 18:45 33.53186 -117.96848 8045 ft 271 kts 339°
2026-04-26 18:46 33.54999 -117.97468 8045 ft 271 kts 339°
2026-04-26 18:46 33.56816 -117.98091 8047 ft 271 kts 340°
2026-04-26 18:46 33.58605 -117.98703 8044 ft 271 kts 340°
2026-04-26 18:46 33.60421 -117.99325 8047 ft 271 kts 339°
2026-04-26 18:47 33.62225 -117.99944 8050 ft 270 kts 339°
2026-04-26 18:47 33.64046 -118.00571 8050 ft 272 kts 339°
2026-04-26 18:47 33.65871 -118.01197 8053 ft 272 kts 340°
2026-04-26 18:47 33.67691 -118.01822 8048 ft 273 kts 339°
2026-04-26 18:48 33.69544 -118.02458 8042 ft 272 kts 340°
2026-04-26 18:48 33.71367 -118.03084 8044 ft 272 kts 339°
2026-04-26 18:48 33.73160 -118.03699 8033 ft 269 kts 339°
2026-04-26 18:48 33.74905 -118.04294 8025 ft 252 kts 339°
2026-04-26 18:49 33.76538 -118.04850 7983 ft 236 kts 339°
2026-04-26 18:49 33.78097 -118.05342 7891 ft 230 kts 340°
2026-04-26 18:49 33.79672 -118.05828 7504 ft 234 kts 341°
2026-04-26 18:49 33.81251 -118.06332 7159 ft 236 kts 340°
2026-04-26 18:50 33.82842 -118.06848 6811 ft 237 kts 340°
2026-04-26 18:50 33.84435 -118.07363 6487 ft 238 kts 340°
2026-04-26 18:50 33.86037 -118.07897 6137 ft 238 kts 340°
2026-04-26 18:50 33.87635 -118.08444 5786 ft 239 kts 341°
2026-04-26 18:51 33.89233 -118.08991 5448 ft 239 kts 341°
2026-04-26 18:51 33.90834 -118.09544 5107 ft 239 kts 340°
2026-04-26 18:51 33.92426 -118.10096 5019 ft 234 kts 340°
2026-04-26 18:51 33.93963 -118.10635 4889 ft 228 kts 340°
2026-04-26 18:52 33.95497 -118.11155 4587 ft 229 kts 341°
2026-04-26 18:52 33.96991 -118.11785 4286 ft 225 kts 327°
2026-04-26 18:52 33.98106 -118.13053 4003 ft 219 kts 310°
2026-04-26 18:52 33.99373 -118.14049 3686 ft 225 kts 343°
2026-04-26 18:53 34.00924 -118.13848 3409 ft 232 kts 24°
2026-04-26 18:53 34.02052 -118.12465 3122 ft 240 kts 65°
2026-04-26 18:53 34.02457 -118.10540 3039 ft 232 kts 87°
2026-04-26 18:53 34.02053 -118.08720 3013 ft 226 kts 130°
2026-04-26 18:54 34.00815 -118.07664 3045 ft 216 kts 166°
2026-04-26 18:54 33.99353 -118.07238 3045 ft 217 kts 173°
2026-04-26 18:54 33.97868 -118.06874 3034 ft 217 kts 174°
2026-04-26 18:54 33.96419 -118.06985 2991 ft 205 kts 211°
2026-04-26 18:55 33.95455 -118.08168 3074 ft 202 kts 239°
2026-04-26 18:55 33.94679 -118.09595 3033 ft 205 kts 238°
2026-04-26 18:55 33.93958 -118.11051 3026 ft 201 kts 247°
2026-04-26 18:55 33.93542 -118.12655 3021 ft 202 kts 264°
2026-04-26 18:56 33.93771 -118.14302 3034 ft 201 kts 287°
2026-04-26 18:56 33.94223 -118.15914 3028 ft 205 kts 286°
2026-04-26 18:56 33.94651 -118.17549 3029 ft 204 kts 287°
2026-04-26 18:56 33.95095 -118.19209 2764 ft 211 kts 286°
2026-04-26 18:57 33.95477 -118.20914 2469 ft 209 kts 277°
2026-04-26 18:57 33.95523 -118.21473 2380 ft 203 kts 270°
2026-04-26 18:57 33.95198 -118.23949 2307 ft 159 kts 259°
2026-04-26 18:57 33.95058 -118.25219 2255 ft 148 kts 264°
2026-04-26 18:58 33.94955 -118.26376 2064 ft 133 kts 262°
2026-04-26 18:58 33.94834 -118.27443 1918 ft 125 kts 262°
2026-04-26 18:58 33.94743 -118.28457 1766 ft 122 kts 262°
2026-04-26 18:58 33.94626 -118.29479 1606 ft 124 kts 262°
2026-04-26 18:59 33.94533 -118.30511 1428 ft 123 kts 261°
2026-04-26 18:59 33.94420 -118.31502 1268 ft 119 kts 261°
2026-04-26 18:59 33.94335 -118.32507 1104 ft 123 kts 262°
2026-04-26 18:59 33.94213 -118.33562 920 ft 128 kts 262°
2026-04-26 19:00 33.94094 -118.34664 715 ft 139 kts 263°
2026-04-26 19:00 33.93981 -118.35788 513 ft 131 kts 263°
2026-04-26 19:00 33.93914 -118.36520 432 ft 135 kts 264°
2026-04-26 19:00 33.93809 -118.37618 282 ft 125 kts 264°
2026-04-26 19:01 33.93703 -118.38652 144 ft 121 kts 264°
2026-04-26 19:01 33.93620 -118.39652 282 ft 128 kts 261°
2026-04-26 19:01 33.93526 -118.40827 624 ft 156 kts 261°
2026-04-26 19:01 33.93409 -118.42207 1254 ft 173 kts 264°
2026-04-26 19:02 33.93267 -118.43698 1886 ft 183 kts 262°
2026-04-26 19:02 33.92975 -118.45275 2101 ft 204 kts 251°
2026-04-26 19:02 33.92389 -118.46823 2040 ft 203 kts 243°
2026-04-26 19:02 33.91811 -118.47700 2024 ft 205 kts 220°
2026-04-26 19:03 33.89898 -118.47956 2480 ft 232 kts 162°
2026-04-26 19:03 33.88636 -118.46674 2892 ft 247 kts 121°
2026-04-26 19:03 33.88253 -118.44694 3328 ft 245 kts 87°
2026-04-26 19:03 33.88422 -118.42607 3762 ft 250 kts 81°
2026-04-26 19:04 33.88640 -118.40525 4183 ft 253 kts 82°
2026-04-26 19:04 33.88859 -118.38429 4577 ft 256 kts 81°
2026-04-26 19:04 33.89081 -118.36321 4976 ft 256 kts 82°
2026-04-26 19:04 33.89234 -118.34208 5032 ft 255 kts 90°
2026-04-26 19:05 33.89128 -118.29972 5029 ft 253 kts 91°
2026-04-26 19:05 33.89068 -118.27845 5029 ft 254 kts 92°
2026-04-26 19:05 33.89008 -118.25725 5024 ft 255 kts 91°
2026-04-26 19:06 33.88948 -118.23613 5033 ft 252 kts 91°
2026-04-26 19:06 33.88889 -118.21497 5027 ft 251 kts 91°
2026-04-26 19:06 33.88831 -118.19375 5026 ft 254 kts 91°
2026-04-26 19:06 33.88774 -118.17244 5021 ft 257 kts 91°
2026-04-26 19:07 33.88717 -118.15080 4676 ft 260 kts 91°
2026-04-26 19:07 33.88660 -118.12889 4271 ft 263 kts 91°
2026-04-26 19:07 33.88616 -118.10678 3851 ft 266 kts 90°
2026-04-26 19:07 33.88565 -118.08427 3633 ft 269 kts 91°
2026-04-26 19:08 33.88618 -118.06224 3636 ft 261 kts 80°
2026-04-26 19:08 33.89422 -118.04324 3605 ft 254 kts 41°
2026-04-26 19:08 33.90913 -118.03409 3623 ft 239 kts
2026-04-26 19:08 33.92566 -118.03396 3641 ft 235 kts 349°
2026-04-26 19:09 33.94193 -118.03625 3635 ft 234 kts 345°
2026-04-26 19:09 33.95592 -118.04493 3611 ft 222 kts 308°
2026-04-26 19:09 33.96281 -118.06131 3641 ft 222 kts 286°
2026-04-26 19:09 33.96662 -118.07930 3636 ft 218 kts 280°
2026-04-26 19:10 33.96756 -118.09754 3624 ft 224 kts 264°
2026-04-26 19:10 33.96495 -118.11574 3635 ft 217 kts 259°
2026-04-26 19:10 33.96240 -118.13373 3628 ft 217 kts 263°
2026-04-26 19:10 33.96090 -118.15195 3628 ft 215 kts 264°
2026-04-26 19:11 33.95920 -118.16930 3593 ft 203 kts 262°
2026-04-26 19:11 33.95737 -118.18578 3375 ft 191 kts 262°
2026-04-26 19:11 33.95593 -118.20119 3111 ft 184 kts 263°
2026-04-26 19:11 33.95430 -118.21601 2860 ft 171 kts 262°
2026-04-26 19:12 33.95304 -118.22935 2639 ft 152 kts 262°
2026-04-26 19:12 33.95164 -118.24205 2450 ft 152 kts 263°
2026-04-26 19:12 33.95047 -118.25466 2254 ft 152 kts 263°
2026-04-26 19:12 33.94904 -118.26751 2048 ft 155 kts 263°
2026-04-26 19:13 33.94790 -118.27977 1828 ft 137 kts 263°
2026-04-26 19:13 33.94673 -118.29041 1665 ft 125 kts 262°
2026-04-26 19:13 33.94572 -118.30111 1489 ft 129 kts 262°
2026-04-26 19:13 33.94455 -118.31165 1331 ft 126 kts 261°
2026-04-26 19:14 33.94358 -118.32214 1158 ft 127 kts 263°
2026-04-26 19:14 33.94244 -118.33245 981 ft 126 kts 261°
2026-04-26 19:14 33.94137 -118.34309 803 ft 128 kts 265°
2026-04-26 19:14 33.94084 -118.34986 713 ft 118 kts 264°
2026-04-26 19:15 33.93946 -118.36297 448 ft 127 kts 264°
2026-04-26 19:15 33.93832 -118.37370 320 ft 129 kts 262°
2026-04-26 19:15 33.93732 -118.38450 168 ft 130 kts 258°
2026-04-26 19:15 33.93611 -118.39440 127 ft 100 kts 261°
2026-04-26 19:16 33.93555 -118.40045 129 ft 57 kts 262°
2026-04-26 19:16 33.93535 -118.40362 125 ft 24 kts 272°
2026-04-26 19:16 33.93565 -118.40554 128 ft 21 kts 293°
2026-04-26 19:16 33.93598 -118.40715 129 ft 19 kts 266°
2026-04-26 19:17 33.93610 -118.40845 125 ft 14 kts 296°
2026-04-26 19:17 33.93699 -118.40900 128 ft 16 kts 353°
2026-04-26 19:17 33.93785 -118.40880 127 ft 12 kts 60°
2026-04-26 19:17 33.93801 -118.40764 127 ft 16 kts 82°
2026-04-26 19:18 33.93816 -118.40613 129 ft 20 kts 84°
2026-04-26 19:18 33.93834 -118.40432 128 ft 23 kts 82°
2026-04-26 19:18 33.93853 -118.40249 128 ft 20 kts 83°
2026-04-26 19:18 33.93870 -118.40079 127 ft 21 kts 83°
2026-04-26 19:19 33.93884 -118.39939 124 ft 16 kts 83°
2026-04-26 19:19 33.93892 -118.39865 129 ft 0 kts 82°
2026-04-26 19:20 33.93893 -118.39860 129 ft 4 kts 82°
2026-04-26 19:20 33.93904 -118.39747 129 ft 16 kts 83°
2026-04-26 19:20 33.93919 -118.39598 129 ft 17 kts 83°
2026-04-26 19:21 33.93948 -118.39523 128 ft 9 kts 10°
2026-04-26 19:21 33.94005 -118.39548 125 ft 8 kts 281°
2026-04-26 19:21 33.93999 -118.39632 129 ft 12 kts 263°
2026-04-26 19:21 33.93989 -118.39727 129 ft 9 kts 263°
2026-04-26 19:22 33.93985 -118.39790 127 ft 9 kts 282°
2026-04-26 19:22 33.94035 -118.39825 127 ft 11 kts 356°
2026-04-26 19:22 33.94121 -118.39830 126 ft 14 kts 352°
2026-04-26 19:22 33.94183 -118.39854 126 ft 8 kts 292°
2026-04-26 19:23 33.94184 -118.39902 124 ft 1 kts 266°
2026-04-26 19:23 33.94184 -118.39901 124 ft 0 kts 266°
2026-04-26 19:25 33.94184 -118.39900 129 ft 0 kts 266°